STARLINK-36169, 66929

Orbit data source: Space-Track

STARLINK-36169, 66929 is a payload satellite owned by SpaceX/Seattle (US) in LEO that was launched on Sun, 07 Dec 2025 UTC via an FALCON 9 launch vehicle from the Air Force Western Test Range (AFWTR). Payload-class satellites include a variety of spacecraft equipped with specific instruments for various scientific and technological missions. These include communications satellites like Starlink; space stations such as the ISS; scientific satellites like the Hubble; Earth observation satellites from companies like Planet Labs, Umbra, and HawkEye 360; GPS; miniature CubeSats for education and research; and military/defense satellites.

Loading next visibility...
Identifier
66929, 2025-286E
Orbit
LEO
Country
Flag of USUS
Related business
Manufacturer
SpaceX/Seattle
Mission
Operational Commercial Communications
Bus & Motor
STARLINK V2MO, Unknown motor
Mass
575 kg wet, ~530 kg dry
Launch date (UTC)
2025-12-07 (6 months ago)
Launch vehicle
FALCON 9
Launch site
Air Force Western Test Range (AFWTR)
Object type
Payload
Rocket body
Debris
Shape & HBR
Box + 2 Pan, 17.7 m
Radar Cross Section
36.964 m², Large (>1 m²)

Expand to show TLE details & history
Last TLE update: 10 hours ago

TLE from 10 hours ago
0 STARLINK-36169
1 66929U 25286E   26171.48012065  .00023342  00000-0  69971-3 0  9997
2 66929  53.1569 239.6426 0001305  84.9210 275.1941 15.34404375 31175
Epoch: 2026-06-20T11:31Z
TLE epoch observation values (Epoch: 2026-06-20T11:31:22.424Z)
Latitude
-0.00004°
Longitude
158.10499°
Altitude
463.511 km
Speed
7.636 km/s
True Right ascension
15h 58m 34s
True Declination
0° 00' 00"
Sunlit
Object was in full shadow at epoch
Visualization orbit readout
Latitude
Unknown
Longitude
Unknown
Altitude
Unknown
Speed
Unknown
Apparent Right ascension
Unknown
Apparent Declination
Unknown
Sunlit
N/A
Visualization observer readout
Local Sidereal Time
08:33:24
Azimuth
Unknown
Elevation
Unknown
Doppler factor
Unknown
Orbital elements
Apogee altitude
463.84 km
Perigee altitude
462.055 km
Semi-major axis
6,841.085 km
Eccentricity
0.00013
Inclination
53.1569°
RAAN
239.6426°
Arg. of periapsis
84.921°
True anomaly
275.17921°
Mean anomaly
275.1941°
Eccentric anomaly
275.18665°
Mean motion
3.8358 °/min
Orbital period
93.85 mins
BSTAR
0.00069971
Loading maneuver chart data...
Computing Atmospheric mass density...
Loading historical data...
Loading historical data...
Loading historical data...
Loading historical data...
Loading historical data...
Loading historical data...
Loading historical data...

Documentation

Showing up to 5 results
|